{"data":{"norad_id":64612,"intl_designator":"2025-137U","name":"STARLINK-34521","alt_names":[],"object_type":"PAYLOAD","status":"ACTIVE","operator":null,"country":"US","launch_date":"2025-06-25","launch_site_code":"AFETR","launch_vehicle":null,"mission":null,"orbit_class":"UNKNOWN","rcs_meters":null,"size_class":null,"mass_kg":null,"dimensions":null,"purposes":["comms"],"wikipedia_slug":null,"has_3d_model":false,"image_url":null,"decayed_at":null,"tle_current":{"epoch":"2026-09-20T22:42:44.903520Z","epoch_age_seconds":93077,"freshness":"FRESH","line1":"1 64612U 25137U   26263.94635305  .00016213  00000+0  48982-3 0  9997","line2":"2 64612  53.1600 147.2898 0001441  85.6341 274.4826 15.34407347 70640","mean_motion":15.34407347,"eccentricity":0.0001441,"inclination_deg":53.16,"raan_deg":147.2898,"arg_perigee_deg":85.6341,"mean_anomaly_deg":274.4826,"bstar":0.00048982,"rev_number":7064,"period_min":93.847308722512,"perigee_km":461.69564152999,"apogee_km":463.66716539387,"semimajor_km":6840.8184034619,"source":"CELESTRAK","updated_at":"2026-09-21T09:00:35.394679Z"}}}